Weather History for Fort Myers Airport, FL

Change the Weather History Date:

Tuesday, January 22, 2013

  Actual Average Record
Temperature  
Mean Temperature 64 °F -  
Max Temperature 71 °F 73 °F 88 °F (1962)
Min Temperature 57 °F 53 °F 30 °F (1985)
Degree Days  
Heating Degree Days 1    
Growing Degree Days 14 (Base 50)    
Moisture  
Dew Point 48 °F    
Average Humidity 62    
Maximum Humidity 87    
Minimum Humidity 42    
Precipitation  
Precipitation 0.00 in - - ()
Sea Level Pressure  
Sea Level Pressure 30.15 in    
Wind  
Wind Speed 8 mph (NNE)    
Max Wind Speed 15 mph    
Max Gust Speed -    
Visibility 10 miles    
Events      
Averages and records for this station are not official NWS values.
T = Trace of Precipitation, MM = Missing Value Source: NWS Daily Summary

Daily Weather History Graph

Daily Weather History Graph

Search for Another Location

Airport:

Trip Planner

Search our weather history database for the weather conditions in past years. The results will help you decide how hot, cold, wet, or windy it might be!

Date:

Astronomy

Jan. 22, 2013 Rise Set
Actual Time 7:15 AM EST 6:02 PM EST
Civil Twilight 6:50 AM EST 6:26 PM EST
Nautical Twilight 6:22 AM EST 6:54 PM EST
Astronomical Twilight 5:55 AM EST 7:22 PM EST
Moon 2:27 PM EST (1/22) 3:32 AM EST (1/22)
Length of Visible Light 11h 35m
Length of Day
10h 46m
Waxing Gibbous, 82% of the Moon is Illuminated
Jan 22
Waxing Gibbous
Jan 26
Full
Feb 3
Last Quarter
Feb 10
New
Feb 17
First Quarter

Hourly Weather History & Observations

Time (EST) Temp. Dew Point Humidity Pressure Visibility Wind Dir Wind Speed Gust Speed Precip Events Conditions
12:53 AM 61.0 °F 57.0 °F 87% 30.08 in 10.0 mi NNW 4.6 mph - N/A   Clear
1:53 AM 61.0 °F 54.0 °F 78% 30.06 in 10.0 mi North 6.9 mph - N/A   Partly Cloudy
2:53 AM 60.1 °F 53.1 °F 78% 30.06 in 10.0 mi NNW 6.9 mph - N/A   Clear
3:53 AM 59.0 °F 52.0 °F 78% 30.06 in 10.0 mi North 6.9 mph - N/A   Mostly Cloudy
4:45 AM 59.0 °F 51.8 °F 77% 30.07 in 10.0 mi North 4.6 mph - N/A   Overcast
4:53 AM 59.0 °F 52.0 °F 78% 30.06 in 10.0 mi North 5.8 mph - N/A   Overcast
5:37 AM 57.2 °F 51.8 °F 82% 30.09 in 10.0 mi North 6.9 mph - N/A   Scattered Clouds
5:53 AM 57.9 °F 52.0 °F 81% 30.09 in 10.0 mi North 6.9 mph - N/A   Partly Cloudy
6:53 AM 57.9 °F 52.0 °F 81% 30.11 in 10.0 mi North 5.8 mph - N/A   Clear
7:53 AM 59.0 °F 52.0 °F 78% 30.13 in 10.0 mi North 4.6 mph - N/A   Clear
8:53 AM 60.1 °F 51.1 °F 72% 30.16 in 10.0 mi North 6.9 mph - N/A   Clear
9:53 AM 63.0 °F 48.0 °F 58% 30.17 in 10.0 mi North 9.2 mph - N/A   Clear
10:53 AM 68.0 °F 46.9 °F 47% 30.19 in 10.0 mi NNE 12.7 mph - N/A   Clear
11:53 AM 68.0 °F 46.9 °F 47% 30.18 in 10.0 mi North 10.4 mph - N/A   Partly Cloudy
12:53 PM 69.1 °F 46.9 °F 45% 30.16 in 10.0 mi NE 11.5 mph - N/A   Clear
1:53 PM 71.1 °F 46.9 °F 42% 30.14 in 10.0 mi NE 15.0 mph - N/A   Clear
2:53 PM 71.1 °F 46.9 °F 42% 30.14 in 10.0 mi NE 10.4 mph - N/A   Clear
3:53 PM 69.1 °F 46.9 °F 45% 30.14 in 10.0 mi NE 11.5 mph - N/A   Clear
4:53 PM 66.9 °F 48.9 °F 52% 30.16 in 10.0 mi NE 10.4 mph - N/A   Clear
5:53 PM 66.0 °F 48.9 °F 54% 30.18 in 10.0 mi NNE 10.4 mph - N/A   Clear
6:53 PM 64.0 °F 46.9 °F 54% 30.20 in 10.0 mi NE 10.4 mph - N/A   Clear
7:53 PM 63.0 °F 46.0 °F 54% 30.21 in 10.0 mi NE 13.8 mph - N/A   Clear
8:53 PM 61.0 °F 41.0 °F 48% 30.25 in 10.0 mi NE 12.7 mph - N/A   Clear
9:53 PM 59.0 °F 39.9 °F 49% 30.26 in 10.0 mi NE 8.1 mph - N/A   Clear
10:53 PM 59.0 °F 39.9 °F 49% 30.26 in 10.0 mi NE 10.4 mph - N/A   Clear
11:53 PM 57.0 °F 41.0 °F 55% 30.25 in 10.0 mi NNE 9.2 mph - N/A   Clear